EHI
3 4 5 6 10 17 25 30 32 32 32 32 29 26 23 20 19 20 22 23 22 19 17 17 18 15 12 13 11 9 9 10 9 7 5 2 2 3 3 3 3 3 3
5 5 6 7 10 17 25 29 30 29 30 32 31 27 24 21 20 21 22 23 21 20 18 17 18 16 14 14 13 10 8 7 7 7 5 2 2 3 3 3 3 4 4
8 9 10 11 12 16 22 25 27 28 28 30 30 29 27 24 22 22 23 22 20 20 19 18 17 17 15 14 13 11 9 6 4 4 4 3 4 5 4 4 4 5 6
8 10 12 14 14 14 18 23 28 32 31 29 29 30 30 27 25 25 25 24 21 19 18 17 17 16 15 13 12 11 10 8 5 3 3 3 5 7 6 5 5 6 6
8 10 12 13 15 15 18 24 31 37 37 32 30 30 30 28 26 26 26 25 23 19 15 14 14 14 14 12 11 11 11 9 8 5 4 4 5 5 6 6 6 6 6
10 12 13 15 18 20 21 26 33 40 42 37 33 31 31 30 29 28 26 24 21 18 14 11 10 10 11 10 10 11 11 10 9 8 7 5 4 4 4 5 7 7 7
12 13 16 20 22 24 26 30 35 41 43 41 36 33 33 33 32 29 25 22 19 16 14 11 9 9 10 11 11 11 11 10 10 9 9 7 4 4 4 4 6 7 7
13 14 17 21 23 25 28 31 34 38 40 40 39 37 35 34 32 28 24 20 17 14 13 12 11 12 12 12 11 11 10 10 9 9 8 7 5 3 3 3 5 6 6
11 12 14 17 20 23 26 28 30 33 34 35 36 36 32 29 26 22 20 18 16 13 12 12 12 12 12 11 9 9 9 9 8 7 6 6 6 3 2 3 4 5 4
7 8 9 11 14 17 20 22 25 28 29 30 30 29 25 21 18 15 14 15 15 14 11 9 8 9 10 9 8 8 7 7 7 6 6 6 6 5 4 4 4 5 4
4 5 6 7 8 11 14 17 21 23 24 25 25 24 20 16 13 11 11 13 14 14 11 7 6 7 8 8 8 7 7 6 6 6 6 6 6 6 5 4 4 5 5
4 5 6 6 5 7 10 15 17 19 20 21 22 21 18 15 12 10 10 11 12 12 10 7 6 7 7 8 8 8 7 7 6 6 5 5 5 5 6 6 5 4 5
5 6 7 6 6 7 10 13 14 16 18 19 20 20 19 16 12 10 10 10 10 10 9 7 6 6 6 7 7 8 8 7 5 4 3 2 2 3 5 5 4 3 2
8 8 9 9 9 10 11 12 13 15 16 17 17 18 18 16 12 10 10 8 8 9 9 7 6 6 6 6 6 7 8 7 4 2 1 0 1 1 2 2 2 1 1
8 9 11 12 11 12 13 14 14 14 14 13 13 14 14 13 10 8 7 7 7 8 8 7 6 6 6 5 5 5 6 6 4 2 0 0 0 0 0 0 0 0 0
8 9 12 14 13 13 15 15 14 13 12 11 11 11 11 9 7 5 4 5 6 7 8 7 6 5 4 3 3 4 4 4 3 1 0 0 0 0 0 0 0 0 0
7 9 13 15 14 13 14 15 14 12 11 10 10 10 10 8 5 4 3 4 5 7 7 6 4 4 3 1 1 2 3 3 2 1 0 0 0 0 0 0 0 0 0
7 9 11 14 15 14 13 13 13 11 10 9 9 9 8 6 4 3 3 3 4 5 5 4 3 3 2 1 0 1 2 2 1 0 0 0 0 0 0 0 0 0 0
7 8 9 11 14 14 12 11 10 8 8 9 8 7 5 4 3 3 3 3 3 3 3 3 3 3 2 1 0 1 1 1 0 0 0 0 0 0 0 0 0 0 0
8 8 9 10 12 12 11 9 7 6 6 7 6 5 4 3 3 2 2 2 2 2 3 3 3 3 2 1 0 0 0 0 0 0 0 0 0 0 0 0 0 0 0
9 9 9 9 9 9 9 9 7 6 5 5 5 4 4 3 2 1 1 1 1 1 2 2 2 2 1 0 0 0 0 0 0 0 0 0 0 0 0 0 0 0 0
9 9 9 9 8 8 9 9 8 7 5 4 4 3 3 2 1 1 1 1 0 0 1 1 1 1 0 0 0 0 0 0 0 0 0 0 0 0 0 0 0 0 0
7 7 8 8 7 7 9 8 8 6 5 5 4 4 4 2 2 3 2 1 1 0 0 0 0 0 0 0 0 0 0 0 0 0 0 0 0 0 0 0 0 0 0
6 6 6 6 6 7 8 7 5 5 6 6 6 6 6 5 4 4 2 1 1 0 0 0 0 0 0 0 0 0 0 0 0 0 0 0 0 0 0 0 0 0 0
6 6 5 4 5 6 6 5 5 6 7 8 8 6 6 6 4 3 2 1 1 0 0 0 0 0 0 0 0 0 0 0 0 0 0 0 0 0 0 0 0 0 0
4 4 4 3 4 4 5 5 5 7 9 9 8 7 7 6 4 2 1 1 1 0 0 0 0 0 0 0 0 0 0 0 0 0 0 0 0 0 0 0 0 0 0
Wind_Speed
8 8 8 8 9 9 10 10 9 9 8 6 6 6 5 5 4 4 5 6 6 6 6 5 4 5 4 4 5 5 5 4 3 3 4 4 5 5 5 5 5 6 6
8 8 9 9 10 10 10 10 10 9 9 7 5 4 4 4 4 4 4 6 6 6 6 6 5 5 4 5 5 5 5 4 4 4 4 4 5 6 5 5 6 6 6
8 8 9 10 10 10 10 9 10 10 9 8 6 5 4 4 5 5 5 5 6 7 6 6 6 5 6 5 6 6 6 5 4 4 4 3 3 2 4 5 5 5 5
8 8 9 9 9 9 10 10 10 9 9 9 8 8 6 5 5 4 4 5 7 7 6 7 7 6 5 5 6 6 5 6 5 4 4 4 4 3 2 4 4 5 5
7 8 8 8 8 8 9 9 9 9 9 9 9 8 7 5 4 4 4 5 5 6 7 6 6 6 5 5 6 5 6 6 6 4 4 5 5 6 5 4 3 4 5
6 7 7 7 7 7 7 8 9 9 9 10 9 9 8 6 5 5 5 5 5 5 7 7 6 6 5 5 6 6 7 6 5 5 5 5 4 5 5 5 5 5 4
5 6 6 7 6 6 7 7 8 8 9 10 10 9 9 8 8 7 6 5 5 5 6 6 5 5 5 5 5 5 5 6 6 6 5 5 5 5 5 6 5 5 4
5 5 5 5 6 6 6 7 8 8 9 9 9 8 9 7 6 6 5 5 4 4 4 5 5 6 5 5 5 5 5 5 6 7 6 5 6 5 6 5 5 6 5
5 5 4 4 4 5 5 6 7 7 8 8 7 7 7 6 5 5 5 4 3 3 4 4 4 5 5 5 5 5 5 5 6 6 7 6 5 5 6 6 6 6 6
4 4 4 3 3 3 4 5 6 6 6 6 6 5 6 6 5 5 5 4 4 3 4 4 4 4 4 5 5 5 5 5 6 5 5 6 5 5 5 6 6 6 7
3 3 3 3 3 3 4 4 4 5 5 5 5 4 5 5 5 5 5 4 4 4 4 4 5 5 5 5 5 6 5 6 6 6 6 7 6 5 5 5 6 6 6
2 3 3 3 3 3 4 4 4 5 5 5 5 5 4 5 5 5 4 4 4 4 5 5 5 6 5 5 6 7 6 7 7 7 7 7 6 7 6 5 6 6 6
2 2 2 2 3 3 3 4 4 4 4 4 5 5 5 5 5 4 4 5 5 5 5 5 6 6 6 6 6 7 7 7 7 7 7 7 7 7 5 6 6 5 6
2 2 2 2 2 2 2 3 3 3 4 4 4 4 4 4 4 4 4 5 5 5 5 5 5 6 6 7 7 7 7 7 7 7 6 7 6 6 6 6 6 6 6
1 1 1 1 2 2 2 2 3 3 3 4 4 4 4 4 4 4 4 4 4 5 5 5 5 6 5 5 6 6 7 7 7 7 7 7 5 5 5 5 5 5 5
1 1 1 2 2 2 2 3 3 3 3 4 4 4 4 4 4 4 4 4 4 5 5 5 5 5 4 2 3 6 7 7 8 7 7 6 6 6 7 6 6 6 6
1 0 1 1 1 2 2 2 3 3 4 4 4 4 4 4 4 4 4 4 4 4 4 5 5 5 4 3 4 6 7 7 6 6 5 6 4 6 6 7 9 9 9
1 0 1 1 1 2 2 2 3 4 4 4 3 3 3 3 3 3 4 4 3 4 4 4 5 5 4 4 4 5 8 6 6 6 7 6 5 5 5 6 7 7 8
1 0 0 1 1 1 2 2 3 3 3 3 3 3 3 3 3 4 4 4 4 4 5 4 5 5 4 4 5 5 6 5 6 6 6 6 6 3 4 6 7 7 7
1 0 1 1 1 1 2 2 3 3 3 3 3 3 3 3 3 3 4 4 4 5 5 4 4 5 4 4 5 6 6 5 5 5 5 5 5 3 5 7 7 8 8
0 0 1 1 1 2 2 2 2 2 2 2 2 2 3 3 4 3 3 4 4 4 4 4 4 5 4 5 6 6 6 5 5 4 4 3 6 5 6 7 8 8 8
1 1 1 1 1 1 2 1 1 1 1 1 2 2 2 3 2 3 3 3 3 4 4 3 4 4 4 4 5 7 8 7 6 5 4 2 5 6 7 7 7 7 7
1 1 1 1 1 1 1 1 0 1 1 1 2 2 2 2 2 2 2 2 2 3 3 3 3 3 2 3 6 8 9 8 6 4 3 2 4 6 7 9 8 8 7
1 0 1 1 1 0 0 0 0 0 1 1 2 2 2 2 1 2 2 2 2 2 3 3 3 3 2 2 2 3 4 6 6 5 4 5 7 8 7 6 7 7 6
0 0 0 0 0 0 0 1 1 1 1 1 2 2 2 1 2 2 2 3 2 2 3 3 4 4 3 2 2 2 3 3 3 4 5 5 5 6 6 6 6 6 6
0 0 1 1 0 0 0 1 0 1 1 1 2 2 2 1 2 2 1 1 2 2 3 4 5 3 2 2 2 3 3 4 4 5 6 6 6 6 6 6 6 6 6
Wind_Direction
208 197 196 195 190 189 188 190 191 185 189 191 196 195 198 199 200 203 195 204 211 208 220 228 204 225 227 233 233 232 223 227 229 238 233 226 224 230 232 232 234 223 223
203 197 197 197 196 192 191 192 193 188 195 192 197 198 199 202 202 209 198 210 215 217 215 226 226 223 229 228 232 233 240 229 215 240 244 232 207 211 220 219 220 226 225
209 201 200 199 199 196 193 194 194 191 196 190 190 184 190 202 197 204 202 210 215 218 225 221 232 227 231 223 228 228 232 237 222 230 252 259 254 220 192 214 220 221 228
209 203 199 199 199 196 192 193 193 193 192 192 198 195 200 206 207 207 200 202 210 218 220 223 227 229 232 227 228 222 229 236 234 217 234 264 297 276 234 204 208 219 228
206 200 198 198 196 193 191 190 191 194 192 197 199 202 209 211 204 202 198 209 205 215 220 219 222 226 233 230 235 225 229 229 239 236 228 230 239 251 262 254 230 221 224
196 194 192 190 190 189 191 191 191 194 192 196 200 204 209 210 207 206 200 206 205 211 216 218 219 225 230 226 227 225 224 233 237 243 243 239 238 233 241 251 249 244 229
188 184 187 188 188 189 190 191 188 192 194 196 201 203 207 208 209 210 206 212 213 213 212 219 218 225 226 228 228 226 232 227 230 236 241 245 251 251 249 253 256 257 245
185 183 186 190 192 191 190 191 191 194 194 195 199 202 206 211 210 210 215 215 222 222 212 217 218 223 223 223 221 229 226 222 228 236 242 245 245 248 249 252 257 257 250
183 182 181 188 193 194 193 193 194 194 194 193 192 195 201 210 208 201 214 215 217 217 208 211 216 222 222 224 222 231 230 229 233 235 232 243 243 244 247 246 246 253 260
182 176 178 186 192 195 191 191 192 196 194 192 192 189 194 201 205 207 207 211 213 211 206 211 214 218 218 221 226 230 223 227 234 237 238 241 242 239 242 245 245 245 256
172 170 177 184 178 178 182 181 188 191 190 188 184 188 195 197 201 205 206 205 208 207 209 213 214 216 213 215 221 234 227 229 235 237 234 238 246 243 240 240 243 243 245
174 170 175 174 175 180 182 180 185 190 189 182 183 191 195 196 200 202 203 202 207 213 215 219 220 223 220 219 223 232 233 235 239 238 237 239 236 237 246 244 243 245 243
177 170 172 180 186 185 187 185 188 185 180 182 184 189 196 199 206 208 204 209 214 219 221 224 226 229 229 226 229 233 239 242 244 242 241 244 244 242 242 244 247 248 244
168 179 177 173 180 183 191 195 191 183 180 182 185 190 200 207 211 216 212 215 220 225 227 227 233 236 237 238 237 237 240 244 245 246 245 244 244 248 249 243 244 248 249
184 181 177 164 174 184 190 195 185 181 187 189 190 193 199 204 210 222 221 224 230 234 234 233 240 244 242 245 249 248 244 243 243 241 240 236 239 254 259 262 251 246 247
268 213 179 162 175 187 188 183 180 188 198 199 193 188 194 200 208 222 228 230 233 239 238 237 242 247 250 248 255 258 255 248 244 245 244 237 223 225 226 240 249 255 251
351 340 184 175 177 182 185 188 177 186 198 199 199 195 199 204 216 225 227 232 236 239 242 240 242 246 249 222 231 244 253 248 244 243 246 254 243 231 235 221 220 227 236
344 298 193 178 172 173 176 188 182 185 196 197 200 201 208 222 229 236 239 238 238 242 243 244 244 245 237 205 226 246 244 245 243 242 243 248 249 244 247 243 239 238 232
2 355 200 202 189 184 183 186 191 192 202 205 213 216 222 233 237 238 242 241 240 243 245 239 244 246 232 198 213 238 242 240 244 245 242 242 240 224 232 248 251 251 248
31 118 164 167 169 183 193 195 199 202 212 215 217 220 230 237 240 243 242 239 243 246 252 246 245 246 242 198 205 228 248 247 247 239 230 219 230 209 207 243 251 254 257
50 162 162 158 174 184 191 205 210 220 230 227 227 234 241 246 243 241 240 244 248 254 259 259 254 245 237 203 203 221 251 258 256 254 246 217 174 200 219 240 249 254 263
90 126 136 127 138 175 194 206 230 267 243 231 239 256 266 273 254 248 248 251 259 252 248 247 253 246 226 220 209 213 233 263 263 262 264 232 167 206 227 238 249 250 252
105 118 134 122 117 172 209 242 289 291 254 244 264 275 277 274 270 266 267 258 251 267 274 267 267 267 259 207 199 209 219 231 247 266 289 268 215 229 234 234 236 237 241
146 161 160 122 92 71 325 313 298 264 261 258 268 263 253 257 261 268 268 275 278 280 282 283 286 290 284 278 246 226 218 213 229 250 238 214 223 238 250 239 227 235 244
135 140 119 122 92 82 56 34 15 337 286 267 265 262 251 250 259 268 289 279 290 298 278 282 281 281 281 334 347 279 269 275 272 270 254 248 238 238 240 243 243 240 234
77 39 356 327 329 118 93 70 7 291 264 256 275 283 283 274 272 279 266 225 250 219 240 263 278 286 292 319 284 267 270 272 261 252 249 249 249 250 250 249 248 243 244